This is the latest recevied weather packets stored in our database for station/object DG7FDL-7. If no packets are shown the sender has not sent any weather packets the latest 1 day(s).
| Time | Temp. | Humidity | Pressure | Rain* | Wind** | Luminosity | Snow |
|---|---|---|---|---|---|---|---|
| 1777754168 | 24.44° C | 36% | 1017.4 hPa | - | - | - | - |
| 1777753282 | 24.44° C | 36% | 1017.6 hPa | - | - | - | - |
| 1777752369 | 24.44° C | 37% | 1017.7 hPa | - | - | - | - |
| 1777751495 | 22.78° C | 38% | 1017.6 hPa | - | - | - | - |
| 1777750567 | 23.33° C | 37% | 1017.5 hPa | - | - | - | - |
| 1777749688 | 23.33° C | 36% | 1017.4 hPa | - | - | - | - |
| 1777748767 | 24.44° C | 35% | 1017.4 hPa | - | - | - | - |
| 1777747892 | 25° C | 35% | 1017.4 hPa | - | - | - | - |
| 1777746967 | 25° C | 34% | 1017.1 hPa | - | - | - | - |
| 1777746104 | 25° C | 34% | 1017.2 hPa | - | - | - | - |
| 1777745167 | 25.56° C | 32% | 1017.1 hPa | - | - | - | - |
| 1777744276 | 24.44° C | 32% | 1017 hPa | - | - | - | - |
| 1777743363 | 25° C | 31% | 1017 hPa | - | - | - | - |
| 1777742487 | 25° C | 31% | 1017.1 hPa | - | - | - | - |
| 1777741567 | 25° C | 30% | 1017.1 hPa | - | - | - | - |
| 1777740690 | 25° C | 30% | 1017.3 hPa | - | - | - | - |
| 1777739767 | 25° C | 30% | 1017.4 hPa | - | - | - | - |
| 1777738904 | 25° C | 30% | 1017.6 hPa | - | - | - | - |
| 1777737966 | 25° C | 30% | 1017.8 hPa | - | - | - | - |
| 1777737086 | 25° C | 29% | 1017.9 hPa | - | - | - | - |
| 1777736162 | 24.44° C | 29% | 1018.1 hPa | - | - | - | - |
| 1777735290 | 25° C | 29% | 1018.2 hPa | - | - | - | - |
| 1777734366 | 24.44° C | 29% | 1018.3 hPa | - | - | - | - |
| 1777733482 | 25° C | 28% | 1018.5 hPa | - | - | - | - |
| 1777732585 | 25° C | 28% | 1018.7 hPa | - | - | - | - |
* Rain since midnight (hover to see other rain measurements)
** Current wind speed in m/s (hover to see current wind gust speed)